Year,Month,Day,Hour,Minute,Value (Times are PST for temperature in C)
2005,08,09,17,19,25.60
2005,08,09,17,20,25.50
2005,08,09,17,21,25.40
2005,08,09,17,22,25.30
2005,08,09,17,23,25.30
2005,08,09,17,24,25.30
2005,08,09,17,25,25.30
2005,08,09,17,26,25.30
2005,08,09,17,27,25.30
2005,08,09,17,28,25.40
2005,08,09,17,29,25.30
2005,08,09,17,30,25.30
2005,08,09,17,31,25.20
2005,08,09,17,32,25.20
2005,08,09,17,33,25.20
2005,08,09,17,34,25.20
2005,08,09,17,35,25.00
2005,08,09,17,36,25.00
2005,08,09,17,37,25.00
2005,08,09,17,38,24.90
2005,08,09,17,39,24.90
2005,08,09,17,40,24.90
2005,08,09,17,41,24.90
2005,08,09,17,42,24.90
2005,08,09,17,43,24.90
2005,08,09,17,44,24.90
2005,08,09,17,45,24.90
2005,08,09,17,46,24.80
2005,08,09,17,47,24.80
2005,08,09,17,48,24.70
2005,08,09,17,49,24.70
2005,08,09,17,50,24.70
2005,08,09,17,51,24.80
2005,08,09,17,52,24.80
2005,08,09,17,53,24.80
2005,08,09,17,54,24.80
2005,08,09,17,55,24.80
2005,08,09,17,56,24.80
2005,08,09,17,57,24.90
2005,08,09,17,58,24.90
2005,08,09,17,59,24.80
2005,08,09,18,00,24.70
2005,08,09,18,01,24.70
2005,08,09,18,02,24.70
2005,08,09,18,03,24.80
2005,08,09,18,04,24.90
2005,08,09,18,05,24.90
2005,08,09,18,06,25.00
2005,08,09,18,07,25.00
2005,08,09,18,08,25.00
2005,08,09,18,09,25.00
2005,08,09,18,10,25.00
2005,08,09,18,11,25.00
2005,08,09,18,12,25.00
2005,08,09,18,13,25.10
2005,08,09,18,14,25.10
2005,08,09,18,15,25.20
2005,08,09,18,16,25.10
2005,08,09,18,17,25.10
2005,08,09,18,18,24.90
2005,08,09,18,19,24.90
2005,08,09,18,20,24.90
2005,08,09,18,21,24.90
2005,08,09,18,22,24.80
2005,08,09,18,23,24.80
2005,08,09,18,24,24.80
2005,08,09,18,25,24.80
2005,08,09,18,26,24.80
2005,08,09,18,27,24.80
2005,08,09,18,28,24.80
2005,08,09,18,29,24.90
2005,08,09,18,30,24.90
2005,08,09,18,31,25.00
2005,08,09,18,32,24.90
2005,08,09,18,33,24.90
2005,08,09,18,34,24.90
2005,08,09,18,35,24.80
2005,08,09,18,36,24.80
2005,08,09,18,37,24.70
2005,08,09,18,38,24.70
2005,08,09,18,39,24.70
2005,08,09,18,40,24.70
2005,08,09,18,41,24.70
2005,08,09,18,42,24.60
2005,08,09,18,43,24.60
2005,08,09,18,44,24.50
2005,08,09,18,45,24.50
2005,08,09,18,46,24.40
2005,08,09,18,47,24.30
2005,08,09,18,48,24.30
2005,08,09,18,49,24.30
2005,08,09,18,50,24.30
2005,08,09,18,51,24.20
2005,08,09,18,52,24.20
2005,08,09,18,53,24.20
2005,08,09,18,54,24.20
2005,08,09,18,55,24.20
2005,08,09,18,56,24.20
2005,08,09,18,57,24.20
2005,08,09,18,58,24.20
2005,08,09,18,59,24.20
2005,08,09,19,00,24.20
2005,08,09,19,01,24.20
2005,08,09,19,02,24.20
2005,08,09,19,03,24.20
2005,08,09,19,04,24.20
2005,08,09,19,05,24.10
2005,08,09,19,06,24.20
2005,08,09,19,07,24.10
2005,08,09,19,08,24.10
2005,08,09,19,09,24.10
2005,08,09,19,10,24.10
2005,08,09,19,11,24.10
2005,08,09,19,12,24.10
2005,08,09,19,13,24.00
2005,08,09,19,14,23.90
2005,08,09,19,15,23.90
2005,08,09,19,16,23.90
2005,08,09,19,17,23.90
2005,08,09,19,18,23.90
2005,08,09,19,19,23.90
2005,08,09,19,20,23.80
2005,08,09,19,21,23.80
2005,08,09,19,22,23.80
2005,08,09,19,23,23.70
2005,08,09,19,24,23.70
2005,08,09,19,25,23.70
2005,08,09,19,26,23.70
2005,08,09,19,27,23.70
2005,08,09,19,28,23.70
2005,08,09,19,29,23.70
2005,08,09,19,30,23.70
2005,08,09,19,31,23.70
2005,08,09,19,32,23.60
2005,08,09,19,33,23.60
2005,08,09,19,34,23.60
2005,08,09,19,35,23.50
2005,08,09,19,36,23.40
2005,08,09,19,37,23.40
2005,08,09,19,38,23.30
2005,08,09,19,39,23.30
2005,08,09,19,40,23.30
2005,08,09,19,41,23.30
2005,08,09,19,42,23.30
2005,08,09,19,43,23.30
2005,08,09,19,44,23.30
2005,08,09,19,45,23.30
2005,08,09,19,46,23.30
2005,08,09,19,47,23.30
2005,08,09,19,48,23.30
2005,08,09,19,49,23.30
2005,08,09,19,50,23.30
2005,08,09,19,51,23.20
2005,08,09,19,52,23.10
2005,08,09,19,53,23.10
2005,08,09,19,54,23.00
2005,08,09,19,55,22.90
2005,08,09,19,56,22.90
2005,08,09,19,57,22.90
2005,08,09,19,58,22.80
2005,08,09,19,59,22.70
2005,08,09,20,00,22.70
2005,08,09,20,01,22.60
2005,08,09,20,02,22.50
2005,08,09,20,03,22.50
2005,08,09,20,04,22.40
2005,08,09,20,05,22.40
2005,08,09,20,06,22.40
2005,08,09,20,07,22.40
2005,08,09,20,08,22.30
2005,08,09,20,09,22.30
2005,08,09,20,10,22.20
2005,08,09,20,11,22.20
2005,08,09,20,12,22.20
2005,08,09,20,13,22.20
2005,08,09,20,14,22.10
2005,08,09,20,15,22.10
2005,08,09,20,16,22.10
2005,08,09,20,17,22.10
2005,08,09,20,18,22.10
2005,08,09,20,19,22.00
2005,08,09,20,20,22.00
2005,08,09,20,21,22.00
2005,08,09,20,22,21.90
2005,08,09,20,23,21.90
2005,08,09,20,24,21.80
2005,08,09,20,25,21.80
2005,08,09,20,26,21.70
2005,08,09,20,27,21.70
2005,08,09,20,28,21.70
2005,08,09,20,29,21.70
2005,08,09,20,30,21.60
2005,08,09,20,31,21.60
2005,08,09,20,32,21.60
2005,08,09,20,33,21.50
2005,08,09,20,34,21.40
2005,08,09,20,35,21.40
2005,08,09,20,36,21.40
2005,08,09,20,37,21.30
2005,08,09,20,38,21.30
2005,08,09,20,39,21.30
2005,08,09,20,40,21.30
2005,08,09,20,41,21.30
2005,08,09,20,42,21.20
2005,08,09,20,43,21.20
2005,08,09,20,44,21.20
2005,08,09,20,45,21.20
2005,08,09,20,46,21.20
2005,08,09,20,47,21.10
2005,08,09,20,48,21.10
2005,08,09,20,49,21.10
2005,08,09,20,50,21.10
2005,08,09,20,51,21.00
2005,08,09,20,52,21.00
2005,08,09,20,53,21.00
2005,08,09,20,54,21.00
2005,08,09,20,55,20.90
2005,08,09,20,56,20.90
2005,08,09,20,57,20.90
2005,08,09,20,58,20.80
2005,08,09,20,59,20.80
2005,08,09,21,00,20.70
2005,08,09,21,01,20.70
2005,08,09,21,02,20.60
2005,08,09,21,03,20.50
2005,08,09,21,04,20.50
2005,08,09,21,05,20.40
2005,08,09,21,06,20.40
2005,08,09,21,07,20.30
2005,08,09,21,08,20.30
2005,08,09,21,09,20.20
2005,08,09,21,10,20.20
2005,08,09,21,11,20.20
2005,08,09,21,12,20.20
2005,08,09,21,13,20.20
2005,08,09,21,14,20.20
2005,08,09,21,15,20.10
2005,08,09,21,16,20.10
2005,08,09,21,17,20.10
2005,08,09,21,18,20.10
2005,08,09,21,19,20.00
2005,08,09,21,20,19.90
2005,08,09,21,21,19.90
2005,08,09,21,22,19.90
2005,08,09,21,23,19.90
2005,08,09,21,24,19.90
2005,08,09,21,25,19.90
2005,08,09,21,26,19.90
2005,08,09,21,27,19.80
2005,08,09,21,28,19.80
2005,08,09,21,29,19.80
2005,08,09,21,30,19.70
2005,08,09,21,31,19.70
2005,08,09,21,32,19.70
2005,08,09,21,33,19.60
2005,08,09,21,34,19.60
2005,08,09,21,35,19.60
2005,08,09,21,36,19.50
2005,08,09,21,37,19.50
2005,08,09,21,38,19.50
2005,08,09,21,39,19.40
2005,08,09,21,40,19.40
2005,08,09,21,41,19.40
2005,08,09,21,42,19.40
2005,08,09,21,43,19.40
2005,08,09,21,44,19.40
2005,08,09,21,45,19.40
2005,08,09,21,46,19.40
2005,08,09,21,47,19.30
2005,08,09,21,48,19.10
2005,08,09,21,49,19.10
2005,08,09,21,50,19.10
2005,08,09,21,51,19.10
2005,08,09,21,52,18.90
2005,08,09,21,53,18.70
2005,08,09,21,54,18.50
2005,08,09,21,55,18.40
2005,08,09,21,56,18.30
2005,08,09,21,57,18.20
2005,08,09,21,58,18.10
2005,08,09,21,59,18.00
2005,08,09,22,00,17.90
2005,08,09,22,01,17.80
2005,08,09,22,02,17.80
2005,08,09,22,03,17.70
2005,08,09,22,04,17.60
2005,08,09,22,05,17.50
2005,08,09,22,06,17.40
2005,08,09,22,07,17.40
2005,08,09,22,08,17.30
2005,08,09,22,09,17.30
2005,08,09,22,10,17.30
2005,08,09,22,11,17.20
2005,08,09,22,12,17.20
2005,08,09,22,13,17.10
2005,08,09,22,14,17.10
2005,08,09,22,15,17.10
2005,08,09,22,16,17.00
2005,08,09,22,17,17.00
2005,08,09,22,18,17.00
2005,08,09,22,19,17.00
2005,08,09,22,20,16.90
2005,08,09,22,21,16.90
2005,08,09,22,22,16.90
2005,08,09,22,23,16.90
2005,08,09,22,24,16.80
2005,08,09,22,25,16.80
2005,08,09,22,26,16.70
2005,08,09,22,27,16.70
2005,08,09,22,28,16.60
2005,08,09,22,29,16.50
2005,08,09,22,30,16.40
2005,08,09,22,31,16.40
2005,08,09,22,32,16.40
2005,08,09,22,33,16.40
2005,08,09,22,34,16.40
2005,08,09,22,35,16.30
2005,08,09,22,36,16.30
2005,08,09,22,37,16.30
2005,08,09,22,38,16.30
2005,08,09,22,39,16.30
2005,08,09,22,40,16.20
2005,08,09,22,41,16.20
2005,08,09,22,42,16.20
2005,08,09,22,43,16.20
2005,08,09,22,44,16.20
2005,08,09,22,45,16.20
2005,08,09,22,46,16.20
2005,08,09,22,47,16.20
2005,08,09,22,48,16.20
2005,08,09,22,49,16.20
2005,08,09,22,50,16.20
2005,08,09,22,51,16.20
2005,08,09,22,52,16.20
2005,08,09,22,53,16.10
2005,08,09,22,54,16.10
2005,08,09,22,55,16.10
2005,08,09,22,56,16.10
2005,08,09,22,57,16.10
2005,08,09,22,58,16.10
2005,08,09,22,59,16.10
2005,08,09,23,00,16.10
2005,08,09,23,05,15.80
2005,08,09,23,06,15.90
2005,08,09,23,07,15.90
2005,08,09,23,08,15.90
2005,08,09,23,09,15.90
2005,08,09,23,10,15.90
2005,08,09,23,11,15.90
2005,08,09,23,12,15.90
2005,08,09,23,13,15.90
2005,08,09,23,14,15.90
2005,08,09,23,15,15.90
2005,08,09,23,16,15.90
2005,08,09,23,17,15.90
2005,08,09,23,18,15.90
2005,08,09,23,19,15.90
2005,08,09,23,20,15.90
2005,08,09,23,21,15.80
2005,08,09,23,22,15.80
2005,08,09,23,23,15.80
2005,08,09,23,24,15.80
2005,08,09,23,25,15.70
2005,08,09,23,26,15.70
2005,08,09,23,27,15.70
2005,08,09,23,28,15.70
2005,08,09,23,29,15.70
2005,08,09,23,30,15.70
2005,08,09,23,31,15.70
2005,08,09,23,32,15.70
2005,08,09,23,33,15.70
2005,08,09,23,34,15.60
2005,08,09,23,35,15.60
2005,08,09,23,36,15.60
2005,08,09,23,37,15.50
2005,08,09,23,38,15.50
2005,08,09,23,39,15.50
2005,08,09,23,40,15.40
2005,08,09,23,41,15.40
2005,08,09,23,42,15.40
2005,08,09,23,43,15.40
2005,08,09,23,44,15.40
2005,08,09,23,45,15.30
2005,08,09,23,46,15.30
2005,08,09,23,47,15.30
2005,08,09,23,48,15.30
2005,08,09,23,49,15.30
2005,08,09,23,50,15.30
2005,08,09,23,51,15.30
2005,08,09,23,52,15.30
2005,08,09,23,53,15.30
2005,08,09,23,54,15.30
2005,08,09,23,55,15.40
2005,08,09,23,56,15.40
2005,08,09,23,57,15.50
2005,08,09,23,58,15.50
2005,08,09,23,59,15.60
